Regional Weather Roundup
Issued by NWS Cleveland, OH

Home | Current Version | Previous Version | Text Only | Print | Product List | Glossary Off
Versions: 1 2 3 4 5 6 7 8 9 10 11 12 13 14 15 16 17 18 19 20 21 22 23 24 25 26 27 28 29 30 31 32 33 34 35 36 37 38 39 40 41 42 43 44 45 46 47 48 49 50

000
ASUS41 KCLE 170902
RWRCLE
OHIO REGIONAL WEATHER ROUNDUP
NATIONAL WEATHER SERVICE CLEVELAND, OH
500 AM EDT THU AUG 17 2017

NOTE: "FAIR" INDICATES FEW OR NO CLOUDS BELOW 12,000 FEET WITH NO
SIGNIFICANT WEATHER AND/OR OBSTRUCTIONS TO VISIBILITY.

OHZ001>008-015>018-024>027-034-035-043-044-171000-
   NORTHWEST OHIO

CITY           SKY/WX    TMP DP  RH WIND       PRES   REMARKS
DEFIANCE       CLOUDY    72  69  90 SE3       29.89F
FINDLAY        CLOUDY    74  68  81 S7        29.90F
TOLEDO EXPRESS LGT RAIN  70  66  87 CALM      29.91R
TOLEDO EXEC    CLOUDY    70  66  87 SE6       29.91F
LIMA           PTCLDY    73  71  93 S9        29.92S
$$

OHZ009>014-019>023-028>033-038-089-171000-
   NORTHEAST OHIO

CITY           SKY/WX    TMP DP  RH WIND       PRES   REMARKS
CLE-HOPKINS    MOCLDY    73  60  63 S12       29.97S
CLE-LAKEFRONT  CLEAR     74  56  53 SE13      29.94F
CUY CO. ARPT   NOT AVBL
LORAIN-ELYRIA  CLEAR     65  57  75 CALM      29.96S
ASHTABULA      MOCLDY    65  59  81 SE7       30.01F
AKRON-CANTON   PTCLDY    70  60  70 SE6       29.99F
WOOSTER        CLEAR     64  62  93 SE3       29.99R
MANSFIELD      CLEAR     70  67  90 S7        29.98R
YOUNGSTOWN     MOCLDY    63  58  83 E8        30.00F
$$

OHZ042-051>053-060>062-070>072-077>081-171000-
  SOUTHWEST OHIO

CITY           SKY/WX    TMP DP  RH WIND       PRES   REMARKS
CINC-COVINGTON MOCLDY    74  72  93 S7        29.95R
CINC-LUNKEN    MOCLDY    74  72  93 CALM      29.95R
HAMILTON       MOCLDY    74  73  97 CALM      29.94S
DAYTON         PTCLDY    75  71  87 S7        29.94F
WRIGHT-PAT AFB PTCLDY    74  74 100 SE5       29.93F
DAYTON GENERAL RAIN      73  71  93 S7        29.94S FOG
WILMINGTON     PTCLDY    70  70 100 S5        29.95S
$$

OHZ036-037-039>041-045>050-054>059-063>069-073>076-082>088-171000-
  CENTRAL AND SOUTHEAST OHIO

CITY           SKY/WX    TMP DP  RH WIND       PRES   REMARKS
COLUMBUS       PTCLDY    73  71  93 SE3       29.95S
OSU AIRPORT    CLEAR     74  72  93 SE5       29.95S
BOLTON FIELD   CLEAR     70  70 100 CALM      29.97R FOG
RICKENBACK AFB CLEAR     71  70  99 CALM      29.95R
NEWARK         CLEAR     67  66  97 CALM      29.97R FOG
MARION         PTCLDY    71  67  87 S6        29.95S
LANCASTER      CLEAR     69  68  96 CALM      29.97R FOG
ZANESVILLE     CLEAR     70  67  90 CALM      29.97S
NEW PHILLY     NOT AVBL
$$




USA.gov is the U.S. government's official web portal to all federal, state and local government web resources and services.